Location: Unspecified
(48.2082°N, 0.0000°E)
Time: 04:25:54
(UTC+00:00)

Transit 4A - Pass Details

Date: 25 June 2019
Orbit: 862 x 982 km, 66.8° (Epoch: 23 July)

Event Time Altitude Azimuth Distance (km) Brightness Sun altitude
Rises 13:07:20 0° 318° (NW) 3,696 11.0 62.1°
Reaches altitude 10° 13:10:55 10° 338° (NNW) 2,746 10.3 61.7°
Maximum altitude 13:15:07 18° 19° (NNE) 2,222 9.8 61.3°
Drops below altitude 10° 13:19:17 10° 60° (ENE) 2,721 10.2 60.9°
Sets 13:22:48 0° 79° (E) 3,649 10.8 60.5°
